| time (UTC) | temp F | wind direction | speed knots | gust knots | rain 1hr in | rain 24hr in | rain mn in | humidity % | barometer mb |
| 20260507093035 | 45 | 297 | 0.9 | 7.0 | 0.02 | 0.20 | 0.04 | 87 | 1010.9 |
| 20260507091536 | 45 | 316 | 1.7 | 6.1 | 0.02 | 0.20 | 0.04 | 87 | 1010.7 |
| 20260507090022 | 46 | 335 | 1.7 | 8.7 | 0.01 | 0.19 | 0.03 | 87 | 1010.9 |
| 20260507084525 | 46 | 308 | 1.7 | 8.7 | 0.00 | 0.18 | 0.02 | 87 | 1011.1 |
| 20260507083019 | 46 | 301 | 0.9 | 6.1 | 0.00 | 0.18 | 0.02 | 87 | 1011.3 |
| 20260507081520 | 46 | 297 | 1.7 | 6.1 | 0.00 | 0.18 | 0.02 | 87 | 1011.1 |
| 20260507080015 | 46 | 269 | 0.9 | 6.1 | 0.02 | 0.18 | 0.02 | 87 | 1011.1 |
| 20260507074514 | 46 | 307 | 1.7 | 7.8 | 0.02 | 0.18 | 0.02 | 87 | 1011.0 |
| 20260507073012 | 47 | 297 | 0.9 | 6.1 | 0.02 | 0.18 | 0.02 | 87 | 1011.0 |
| 20260507071511 | 47 | 318 | 2.6 | 6.1 | 0.01 | 0.17 | 0.01 | 87 | 1010.8 |
| 20260507070011 | 47 | 308 | 1.7 | 6.1 | 0.00 | 0.16 | 0.00 | 87 | 1010.8 |
| 20260507064507 | 47 | 301 | 0.9 | 4.3 | 0.00 | 0.16 | 0.00 | 87 | 1010.3 |
| 20260507063020 | 48 | 340 | 0.9 | 4.3 | 0.00 | 0.16 | 0.00 | 87 | 1010.2 |
| 20260507061505 | 48 | 291 | 0.9 | 7.8 | 0.00 | 0.16 | 0.00 | 87 | 1010.4 |
| 20260507060003 | 48 | 194 | 1.7 | 7.8 | 0.00 | 0.16 | 0.00 | 87 | 1010.7 |
| 20260507054601 | 48 | 275 | 1.7 | 6.1 | 0.00 | 0.16 | 0.00 | 87 | 1010.2 |
| 20260507053058 | 49 | 355 | 2.6 | 8.7 | 0.00 | 0.16 | 0.00 | 87 | 1010.6 |
| 20260507051600 | 49 | 288 | 0.9 | 7.0 | 0.00 | 0.16 | 0.00 | 87 | 1010.9 |
| 20260507050051 | 51 | 307 | 2.6 | 6.1 | 0.00 | 0.16 | 0.00 | 86 | 1010.8 |
| 20260507044552 | 51 | 279 | 1.7 | 6.1 | 0.00 | 0.16 | 0.00 | 86 | 1010.7 |
| 20260507043049 | 51 | 300 | 2.6 | 8.7 | 0.00 | 0.16 | 0.00 | 86 | 1010.6 |
| 20260507041545 | 52 | 299 | 2.6 | 6.1 | 0.00 | 0.16 | 0.00 | 86 | 1010.7 |
| 20260507040043 | 52 | 307 | 2.6 | 8.7 | 0.00 | 0.16 | 0.00 | 86 | 1010.5 |
| 20260507034542 | 53 | 323 | 5.2 | 8.7 | 0.00 | 0.16 | 0.16 | 86 | 1010.8 |
| 20260507033039 | 54 | 296 | 4.3 | 11.3 | 0.00 | 0.16 | 0.16 | 86 | 1010.7 |
| 20260507031536 | 55 | 285 | 4.3 | 10.4 | 0.00 | 0.16 | 0.16 | 86 | 1010.4 |
| 20260507030034 | 56 | 284 | 6.1 | 10.4 | 0.00 | 0.16 | 0.16 | 86 | 1010.2 |
| 20260507024535 | 56 | 293 | 4.3 | 10.4 | 0.00 | 0.16 | 0.16 | 86 | 1010.0 |
| 20260507023032 | 57 | 330 | 6.1 | 14.8 | 0.00 | 0.16 | 0.16 | 87 | 1010.0 |
| 20260507021532 | 57 | 293 | 4.3 | 11.3 | 0.00 | 0.16 | 0.16 | 87 | 1009.5 |
| 20260507020040 | 57 | 285 | 5.2 | 10.4 | 0.00 | 0.16 | 0.16 | 87 | 1009.7 |
| 20260507014530 | 57 | 281 | 3.5 | 12.2 | 0.01 | 0.16 | 0.16 | 87 | 1009.6 |
| 20260507013045 | 57 | 283 | 5.2 | 10.4 | 0.01 | 0.16 | 0.16 | 87 | 1009.7 |
| 20260507011529 | 57 | 295 | 4.3 | 9.6 | 0.01 | 0.16 | 0.16 | 87 | 1009.4 |
| 20260507010035 | 57 | 293 | 3.5 | 9.6 | 0.01 | 0.16 | 0.16 | 87 | 1009.7 |
| 20260507004527 | 57 | 258 | 4.3 | 8.7 | 0.00 | 0.15 | 0.15 | 87 | 1009.8 |
| 20260507003027 | 56 | 287 | 3.5 | 11.3 | 0.00 | 0.15 | 0.15 | 87 | 1009.7 |
| 20260507001530 | 56 | 284 | 3.5 | 9.6 | 0.00 | 0.15 | 0.15 | 87 | 1009.6 |
| 20260507000025 | 56 | 299 | 2.6 | 7.8 | 0.00 | 0.15 | 0.15 | 87 | 1009.6 |
| 20260506234531 | 56 | 292 | 2.6 | 7.0 | 0.01 | 0.15 | 0.15 | 87 | 1009.4 |
| 20260506233038 | 56 | 282 | 2.6 | 9.6 | 0.02 | 0.15 | 0.15 | 87 | 1009.3 |
| 20260506231528 | 56 | 280 | 2.6 | 6.1 | 0.04 | 0.15 | 0.15 | 87 | 1009.3 |
| 20260506230026 | 56 | 268 | 2.6 | 6.1 | 0.04 | 0.15 | 0.15 | 87 | 1009.2 |
| 20260506224523 | 56 | 275 | 2.6 | 5.2 | 0.03 | 0.14 | 0.14 | 87 | 1009.2 |
| 20260506223022 | 56 | 294 | 1.7 | 7.8 | 0.02 | 0.13 | 0.13 | 87 | 1009.3 |
| 20260506221521 | 56 | 301 | 2.6 | 11.3 | 0.01 | 0.11 | 0.11 | 87 | 1009.6 |
| 20260506220027 | 56 | 272 | 1.7 | 10.4 | 0.01 | 0.11 | 0.11 | 87 | 1009.4 |
| 20260506214519 | 57 | 296 | 0.9 | 5.2 | 0.01 | 0.11 | 0.11 | 87 | 1009.5 |
| 20260506213018 | 57 | 257 | 1.7 | 8.7 | 0.01 | 0.11 | 0.11 | 87 | 1009.6 |
| 20260506211524 | 57 | 243 | 2.6 | 7.8 | 0.00 | 0.10 | 0.10 | 87 | 1009.8 |
| 20260506210025 | 57 | 264 | 2.6 | 8.7 | 0.00 | 0.10 | 0.10 | 87 | 1009.9 |
| 20260506204515 | 57 | 299 | 2.6 | 7.8 | 0.01 | 0.10 | 0.10 | 87 | 1010.0 |
| 20260506203014 | 57 | 293 | 2.6 | 8.7 | 0.01 | 0.10 | 0.10 | 87 | 1010.1 |
| 20260506201514 | 57 | 298 | 4.3 | 12.2 | 0.02 | 0.10 | 0.10 | 87 | 1010.2 |
| 20260506200031 | 57 | 323 | 1.7 | 11.3 | 0.03 | 0.10 | 0.10 | 87 | 1010.1 |
| 20260506194512 | 57 | 267 | 2.6 | 7.0 | 0.03 | 0.09 | 0.09 | 87 | 1010.3 |
| 20260506193011 | 58 | 293 | 1.7 | 7.8 | 0.05 | 0.09 | 0.09 | 87 | 1010.4 |
| 20260506191510 | 58 | 245 | 0.9 | 6.1 | 0.06 | 0.08 | 0.08 | 87 | 1010.4 |
| 20260506190010 | 58 | 233 | 2.6 | 8.7 | 0.06 | 0.07 | 0.07 | 87 | 1010.6 |
| 20260506184509 | 59 | 287 | 0.9 | 5.2 | 0.06 | 0.06 | 0.06 | 87 | 1010.5 |
| 20260506183006 | 59 | 256 | 0.9 | 7.0 | 0.04 | 0.04 | 0.04 | 87 | 1010.8 |
| 20260506181512 | 60 | 268 | 3.5 | 7.8 | 0.02 | 0.02 | 0.02 | 86 | 1010.9 |
| 20260506180013 | 61 | 235 | 1.7 | 8.7 | 0.01 | 0.01 | 0.01 | 84 | 1011.1 |
| 20260506174504 | 63 | 285 | 5.2 | 13.0 | 0.00 | 0.00 | 0.00 | 81 | 1011.2 |
| 20260506173004 | 66 | 274 | 4.3 | 13.9 | 0.00 | 0.00 | 0.00 | 77 | 1011.1 |
| 20260506171504 | 68 | 258 | 1.7 | 13.0 | 0.00 | 0.00 | 0.00 | 74 | 1011.0 |
| 20260506170002 | 68 | 265 | 2.6 | 11.3 | 0.00 | 0.00 | 0.00 | 73 | 1010.8 |
| 20260506164502 | 69 | 258 | 3.5 | 7.8 | 0.00 | 0.00 | 0.00 | 72 | 1010.9 |
| 20260506163106 | 68 | 268 | 4.3 | 9.6 | 0.00 | 0.00 | 0.00 | 73 | 1011.1 |
| 20260506161558 | 68 | 268 | 3.5 | 13.9 | 0.00 | 0.00 | 0.00 | 72 | 1011.4 |
| 20260506160108 | 68 | 260 | 5.2 | 13.9 | 0.00 | 0.00 | 0.00 | 72 | 1011.5 |
| 20260506154555 | 68 | 281 | 4.3 | 8.7 | 0.00 | 0.00 | 0.00 | 74 | 1011.8 |
| 20260506153052 | 67 | 264 | 4.3 | 13.0 | 0.00 | 0.00 | 0.00 | 75 | 1012.0 |
| 20260506151551 | 67 | 286 | 2.6 | 16.5 | 0.00 | 0.00 | 0.00 | 75 | 1012.2 |
| 20260506150050 | 67 | 258 | 5.2 | 14.8 | 0.00 | 0.00 | 0.00 | 74 | 1012.4 |
| 20260506144548 | 67 | 283 | 1.7 | 13.9 | 0.00 | 0.00 | 0.00 | 76 | 1012.5 |
| 20260506143047 | 67 | 249 | 3.5 | 10.4 | 0.00 | 0.00 | 0.00 | 78 | 1012.6 |
| 20260506141604 | 66 | 262 | 3.5 | 11.3 | 0.00 | 0.00 | 0.00 | 77 | 1012.5 |
| 20260506140043 | 65 | 257 | 1.7 | 6.1 | 0.00 | 0.00 | 0.00 | 79 | 1012.4 |
| 20260506134542 | 65 | 283 | 4.3 | 8.7 | 0.00 | 0.00 | 0.00 | 79 | 1012.4 |
| 20260506133040 | 65 | 240 | 2.6 | 8.7 | 0.00 | 0.00 | 0.00 | 81 | 1012.5 |
| 20260506131539 | 64 | 276 | 3.5 | 13.0 | 0.00 | 0.00 | 0.00 | 82 | 1012.6 |
| 20260506130034 | 62 | 242 | 0.9 | 7.0 | 0.00 | 0.00 | 0.00 | 83 | 1012.9 |
| 20260506124537 | 61 | 252 | 3.5 | 9.6 | 0.00 | 0.00 | 0.00 | 83 | 1013.0 |
| 20260506123039 | 60 | 277 | 2.6 | 13.0 | 0.00 | 0.00 | 0.00 | 84 | 1012.8 |
| 20260506121527 | 59 | 252 | 0.9 | 6.1 | 0.00 | 0.00 | 0.00 | 85 | 1012.8 |
| 20260506120035 | 59 | 281 | 1.7 | 5.2 | 0.00 | 0.00 | 0.00 | 86 | 1013.2 |
| 20260506114526 | 57 | 235 | 0.0 | 6.1 | 0.00 | 0.00 | 0.00 | 86 | 1013.0 |
| 20260506113021 | 56 | 277 | 1.7 | 5.2 | 0.00 | 0.00 | 0.00 | 87 | 1013.4 |
| 20260506111520 | 55 | 278 | 0.0 | 5.2 | 0.00 | 0.00 | 0.00 | 87 | 1013.5 |
| 20260506110024 | 55 | 312 | 0.9 | 7.8 | 0.00 | 0.00 | 0.00 | 87 | 1013.6 |
| 20260506104519 | 55 | 271 | 1.7 | 5.2 | 0.00 | 0.00 | 0.00 | 87 | 1013.4 |
| 20260506103026 | 54 | 254 | 1.7 | 6.1 | 0.00 | 0.00 | 0.00 | 87 | 1013.4 |
| 20260506101520 | 54 | 289 | 1.7 | 7.0 | 0.00 | 0.00 | 0.00 | 87 | 1013.3 |
| 20260506100016 | 54 | 265 | 0.9 | 4.3 | 0.00 | 0.00 | 0.00 | 87 | 1013.4 |
| 20260506094527 | 54 | 297 | 1.7 | 6.1 | 0.00 | 0.00 | 0.00 | 87 | 1013.3 |